Weather History for KCNM - May, 2013

Change the Weather History Date:

Saturday, May 11, 2013

  Actual Average Record
Temperature  
Mean Temperature 66 °F -  
Max Temperature 79 °F 87 °F 103 °F (1962)
Min Temperature 54 °F 55 °F 44 °F (1952)
Cooling Degree Days 2    
Growing Degree Days 16 (Base 50)    
Moisture  
Dew Point 40 °F    
Average Humidity 44    
Maximum Humidity 67    
Minimum Humidity 21    
Precipitation  
Precipitation 0.00 in - - ()
Sea Level Pressure  
Sea Level Pressure 30.14 in    
Wind  
Wind Speed 8 mph (North)    
Max Wind Speed 22 mph    
Max Gust Speed 28 mph    
Visibility 10 miles    
Events      
Averages and records for this station are not official NWS values.
T = Trace of Precipitation, MM = Missing Value Source: NWS Daily Summary

Daily Weather History Graph

Daily Weather History Graph

Search for Another Location

Airport or City:

Trip Planner

Search our weather history database for the weather conditions in past years. The results will help you decide how hot, cold, wet, or windy it might be!

Date:

Astronomy

May. 11, 2013 Rise Set
Actual Time 6:01 AM MDT 7:45 PM MDT
Civil Twilight 5:34 AM MDT 8:12 PM MDT
Nautical Twilight 5:02 AM MDT 8:44 PM MDT
Astronomical Twilight 4:28 AM MDT 9:18 PM MDT
Moon 7:13 AM MDT (5/11) 9:25 PM MDT (5/11)
Length of Visible Light 14h 37m
Length of Day
13h 43m
Waxing Crescent, 3% of the Moon is Illuminated
May 11
Waxing Crescent
May 17
First Quarter
May 24
Full
May 31
Last Quarter
Jun 8
New

Hourly Weather History & Observations

Time (MDT) Temp. Dew Point Humidity Pressure Visibility Wind Dir Wind Speed Gust Speed Precip Events Conditions
12:53 AM 55.9 °F 43.0 °F 62% 30.09 in 10.0 mi North 8.1 mph - N/A   Clear
1:53 AM 55.0 °F 44.1 °F 67% 30.10 in 10.0 mi NNW 8.1 mph - N/A   Clear
2:53 AM 54.0 °F 43.0 °F 66% 30.13 in 10.0 mi NW 5.8 mph - N/A   Clear
3:53 AM 54.0 °F 42.1 °F 64% 30.12 in 10.0 mi WNW 8.1 mph - N/A   Mostly Cloudy
4:53 AM 55.0 °F 43.0 °F 64% 30.13 in 10.0 mi NW 10.4 mph - N/A   Overcast
5:53 AM 55.0 °F 43.0 °F 64% 30.15 in 10.0 mi NW 12.7 mph - N/A   Overcast
6:53 AM 55.9 °F 43.0 °F 62% 30.17 in 10.0 mi NNW 10.4 mph - N/A   Overcast
7:53 AM 59.0 °F 44.1 °F 58% 30.18 in 10.0 mi NNW 8.1 mph - N/A   Clear
8:53 AM 61.0 °F 45.0 °F 56% 30.19 in 10.0 mi NNW 8.1 mph - N/A   Overcast
9:53 AM 64.9 °F 46.9 °F 52% 30.19 in 10.0 mi NNE 6.9 mph - N/A   Partly Cloudy
10:53 AM 68.0 °F 45.0 °F 43% 30.18 in 10.0 mi ESE 4.6 mph - N/A   Clear
11:53 AM 71.1 °F 43.0 °F 36% 30.16 in 10.0 mi Variable 4.6 mph - N/A   Partly Cloudy
12:53 PM 71.1 °F 39.9 °F 32% 30.15 in 10.0 mi SE 4.6 mph - N/A   Scattered Clouds
1:53 PM 75.0 °F 36.0 °F 24% 30.12 in 10.0 mi Calm Calm - N/A   Clear
2:53 PM 77.0 °F 34.0 °F 21% 30.10 in 10.0 mi ENE 9.2 mph - N/A   Scattered Clouds
3:53 PM 75.9 °F 34.0 °F 22% 30.08 in 10.0 mi ENE 6.9 mph - N/A   Partly Cloudy
4:20 PM 73.4 °F 35.6 °F 25% 30.19 in 10.0 mi NNW 13.8 mph - N/A   Partly Cloudy
4:53 PM 79.0 °F 36.0 °F 21% 30.07 in 10.0 mi North 13.8 mph 20.7 mph N/A   Partly Cloudy
5:53 PM 75.9 °F 37.0 °F 24% 30.08 in 10.0 mi NNE 21.9 mph 27.6 mph N/A   Clear
6:53 PM 73.9 °F 37.0 °F 26% 30.10 in 10.0 mi NE 12.7 mph - N/A   Partly Cloudy
7:53 PM 69.1 °F 41.0 °F 36% 30.14 in 10.0 mi SE 15.0 mph - N/A   Mostly Cloudy
8:00 PM 68.0 °F 41.0 °F 37% 30.25 in 10.0 mi SE 12.7 mph 21.9 mph N/A   Mostly Cloudy
8:53 PM 63.0 °F 42.1 °F 46% 30.16 in 10.0 mi SSW 6.9 mph - N/A   Clear
9:53 PM 61.0 °F 39.9 °F 46% 30.17 in 10.0 mi SW 3.5 mph - N/A   Clear
10:53 PM 59.0 °F 37.9 °F 46% 30.17 in 10.0 mi Calm Calm - N/A   Clear
11:53 PM 55.0 °F 35.1 °F 47% 30.17 in 10.0 mi Calm Calm - N/A   Clear